User: anonymous   Login
Location: State Camp
(41.2367°N, 77.7828°W)
Time: 11:37:40
(UTC-05:00)
Language:

ADEOS Rocket - Orbit

View from above orbital plane
View from above orbital plane
View from above satellite
View from above satellite

Ground track
Ground track

The orbit data is extracted from the following two-line orbital elements,

1 24279U 96046C   15030.81796847  .00000047  00000-0  10544-3 0  7927
2 24279 098.7157 074.8147 0299586 344.6875 139.9447 13.47011384907331
Epoch (UTC): 30 January 2015 19:37:52
Eccentricity: 0.0299586
inclination: 98.7157°
perigee height: 860 km
apogee height: 1307 km
right ascension of ascending node: 74.8147°
argument of perigee: 344.6875°
revolutions per day: 13.47011384
mean anomaly at epoch: 139.9447°
orbit number at epoch: 90733

The dashed part of the orbit path shows where the satellite is in the earth's shadow,  

DLR